Home > Weather > Dakar > Past weeks

Flag for Senegal Weather for the Past 2 Weeks in Dakar, Senegal

Now
79 °F

Clear.


Feels Like: 80 °F
Forecast: N/A
Wind: 15 mph from North

Location: Dakar / Yoff

Current Time: Feb 9, 2016 at 6:18:42 PM

Latest Report: Feb 9, 2016 at 6:00 PM


Visibility: 4 mi

Pressure: 29.98 "Hg

Humidity: 54%

Dew point: 61 °F

Location of DakarLocation

Historic Weather in Dakar — Graph

°F

Dakar Temperature Yesterday

Maximum temperature yesterday: 95 °F (at 2:00 PM)
Minimum temperature yesterday: 73 °F (at 5:30 AM)
Average temperature yesterday: 82 °F

High & Low Weather Summary for the Past Weeks

 TemperatureHumidityPressure
High97 °F (Feb 7, 2:00 PM)100% (Jan 30, 4:00 PM)32.90 "Hg (Jan 30, 4:00 PM)
Low50 °F (Jan 30, 4:00 PM)10% (Feb 4, 10:30 AM)29.83 "Hg (Feb 2, 4:30 PM)
Average78 °F52%29.96 "Hg
* Reported Jan 25 5:00 PM — Feb 9 5:00 PM, Dakar, Weather by CustomWeather, © 2016

Note: Actual official high and low records may vary slightly from our data, if they occured in-between our weather recording intervals... More about our weather records

Advertising

Dakar Weather History for the Previous 24 Hours

 ConditionsComfort  
Time TempWeatherWind HumidityBarometerVisibility
5:00 PM
Tue, Feb 9
82 °FClear.12 mph48%29.95 "Hg4 mi
4:00 PM82 °FClear.13 mph58%29.95 "Hg4 mi
3:30 PM81 °FClear.9 mph54%29.98 "Hg4 mi
3:00 PM81 °FClear.7 mph54%29.98 "Hg4 mi
2:30 PM82 °FClear.10 mph48%29.98 "Hg4 mi
2:00 PM82 °FClear.12 mph48%30.01 "Hg4 mi
1:30 PM82 °FClear.10 mph48%30.01 "Hg4 mi
1:00 PM82 °FClear.10 mph48%30.01 "Hg4 mi
12:30 PM82 °FClear.10 mph48%30.04 "Hg4 mi
12:00 PM82 °FClear.9 mph48%30.07 "Hg4 mi
11:30 AM86 °FClear.13 mph33%30.04 "Hg4 mi
10:30 AM84 °FClear.13 mph25%30.07 "Hg4 mi
10:00 AM84 °FClear.14 mph25%30.07 "Hg4 mi
9:30 AM82 °FClear.14 mph26%30.04 "Hg4 mi
9:00 AM82 °FClear.13 mph26%30.04 "Hg4 mi
8:00 AM79 °FClear.12 mph28%30.04 "Hg4 mi
7:30 AM81 °FClear.12 mph28%30.01 "Hg4 mi
7:00 AM81 °FClear.10 mph28%30.01 "Hg4 mi
6:30 AM81 °FClear.10 mph28%29.98 "Hg4 mi
6:00 AM82 °FClear.10 mph25%29.98 "Hg4 mi
5:30 AM82 °FClear.12 mph25%29.98 "Hg4 mi
5:00 AM82 °FClear.10 mph25%29.98 "Hg4 mi
4:30 AM82 °FClear.12 mph25%29.98 "Hg4 mi
4:00 AM82 °FClear.10 mph25%29.98 "Hg4 mi
3:30 AM82 °FClear.10 mph25%29.98 "Hg4 mi
3:00 AM82 °FClear.10 mph25%29.98 "Hg4 mi
2:30 AM82 °FClear.10 mph28%29.98 "Hg4 mi
2:00 AM81 °FClear.12 mph45%29.98 "Hg4 mi
1:30 AM81 °FClear.12 mph45%30.01 "Hg4 mi
1:00 AM81 °FClear.12 mph45%30.01 "Hg4 mi
12:30 AM81 °FClear.10 mph45%30.01 "Hg4 mi
11:30 PM
Mon, Feb 8
81 °FClear.12 mph54%30.01 "Hg4 mi
11:00 PM81 °FClear.12 mph54%30.04 "Hg4 mi
10:30 PM84 °FClear.12 mph45%30.01 "Hg4 mi
10:00 PM82 °FDuststorm.10 mph48%30.01 "Hg3 mi
9:00 PM82 °FDuststorm.10 mph37%29.98 "Hg2 mi
8:30 PM82 °FDuststorm.10 mph48%29.98 "Hg2 mi
8:00 PM82 °FDuststorm.10 mph48%29.95 "Hg2 mi
7:30 PM82 °FDuststorm.12 mph48%29.95 "Hg2 mi
7:00 PM84 °FDuststorm.9 mph45%29.92 "Hg2 mi
6:30 PM84 °FDuststorm.8 mph45%29.92 "Hg2 mi
6:00 PM84 °FDuststorm.9 mph45%29.92 "Hg2 mi
Weather by CustomWeather, © 2016

See weather overviewHow to use our weather pages